CW8306 Weather Reports


Display with metric or nautical units.
time (UTC)temp
F
wind
direction
speed
MPH
gust
MPH
rain 1hr
in
rain 24hr
in
rain mn
in
humidity
%
barometer
mb
20260508122159 42 126 3.0 3.0 0.00 0.00 0.00 53 1004.8
20260508121657 42 190 1.0 1.0 0.00 0.00 0.00 55 1004.9
20260508121155 42 133 2.0 2.0 0.00 0.00 0.00 54 1004.8
20260508120652 42 173 1.0 2.0 0.00 0.00 0.00 53 1004.8
20260508120150 42 214 0.0 2.0 0.00 0.00 0.00 54 1004.8
20260508115648 42 179 2.0 2.0 0.00 0.00 0.00 54 1004.9
20260508115144 42 193 1.0 2.0 0.00 0.00 0.00 55 1004.6
20260508114641 42 201 0.0 2.0 0.00 0.00 0.00 55 1004.8
20260508114137 42 211 1.0 2.0 0.00 0.00 0.00 54 1005.0
20260508113635 42 149 2.0 2.0 0.00 0.00 0.00 55 1005.0
20260508113133 42 115 1.0 2.0 0.00 0.00 0.00 54 1005.0
20260508112628 42 155 0.0 3.0 0.00 0.00 0.00 54 1005.0
20260508112126 42 194 0.0 2.0 0.00 0.00 0.00 55 1005.0
20260508111622 42 134 1.0 1.0 0.00 0.00 0.00 54 1005.2
20260508111120 42 171 1.0 2.0 0.00 0.00 0.00 53 1005.1
20260508110618 42 159 0.0 1.0 0.00 0.00 0.00 53 1005.0
20260508110113 42 194 0.0 0.0 0.00 0.00 0.00 54 1004.9
20260508105608 42 182 1.0 2.0 0.00 0.00 0.00 53 1004.9
20260508105106 42 196 0.0 2.0 0.00 0.00 0.00 53 1005.1
20260508104603 42 316 0.0 1.0 0.00 0.00 0.00 53 1005.2
20260508104059 42 116 2.0 3.0 0.00 0.00 0.00 52 1005.4
20260508103557 42 202 0.0 2.0 0.00 0.00 0.00 53 1005.4
20260508103054 42 117 1.0 2.0 0.00 0.00 0.00 53 1005.7
20260508102551 42 102 1.0 2.0 0.00 0.00 0.00 54 1005.6
20260508102049 42 189 0.0 2.0 0.00 0.00 0.00 55 1005.9
20260508101546 42 197 0.0 1.0 0.00 0.00 0.00 53 1005.7
20260508101043 42 197 0.0 2.0 0.00 0.00 0.00 53 1005.6
20260508100541 42 199 0.0 3.0 0.00 0.00 0.00 54 1005.6
20260508100038 42 179 0.0 2.0 0.00 0.00 0.00 54 1005.7
20260508095535 42 198 0.0 2.0 0.00 0.00 0.00 53 1005.8
20260508095032 42 198 1.0 3.0 0.00 0.00 0.00 52 1005.8
20260508094529 42 183 1.0 1.0 0.00 0.00 0.00 52 1005.8
20260508094026 42 195 0.0 1.0 0.00 0.00 0.00 53 1005.9
20260508093523 42 206 0.0 1.0 0.00 0.00 0.00 53 1006.2
20260508093021 42 201 0.0 0.0 0.00 0.00 0.00 55 1006.1
20260508092518 41 201 0.0 2.0 0.00 0.00 0.00 55 1006.2
20260508092017 41 204 0.0 0.0 0.00 0.00 0.00 56 1006.2
20260508091513 41 204 0.0 1.0 0.00 0.00 0.00 56 1006.5
20260508091010 41 198 1.0 1.0 0.00 0.00 0.00 56 1006.4
20260508090508 41 213 0.0 0.0 0.00 0.00 0.00 56 1006.5
20260508090005 41 213 0.0 0.0 0.00 0.00 0.00 57 1006.5
20260508085501 42 213 0.0 0.0 0.00 0.00 0.00 56 1006.4
20260508084958 42 217 0.0 1.0 0.00 0.00 0.00 56 1006.3
20260508084455 41 221 0.0 0.0 0.00 0.00 0.00 57 1006.6
20260508083953 41 211 0.0 1.0 0.00 0.00 0.00 56 1006.6
20260508083449 41 211 0.0 1.0 0.00 0.00 0.00 57 1006.8
20260508082944 41 230 0.0 0.0 0.00 0.00 0.00 57 1006.7
20260508082442 41 230 0.0 1.0 0.00 0.00 0.00 58 1006.7
20260508081939 41 229 0.0 0.0 0.00 0.00 0.00 56 1006.7
20260508081436 41 229 0.0 0.0 0.00 0.00 0.00 57 1006.8
20260508080932 42 229 0.0 0.0 0.00 0.00 0.00 57 1006.6
20260508080431 42 229 0.0 0.0 0.00 0.00 0.00 56 1006.8
20260508075927 42 257 1.0 2.0 0.00 0.00 0.00 55 1006.7
20260508075424 41 167 3.0 3.0 0.00 0.00 0.00 57 1006.6
20260508074922 41 193 1.0 1.0 0.00 0.00 0.00 56 1006.8
20260508074419 41 195 0.0 1.0 0.00 0.00 0.00 55 1006.9
20260508073916 41 191 0.0 2.0 0.00 0.00 0.00 55 1006.9
20260508073414 41 205 1.0 1.0 0.00 0.00 0.00 56 1007.0
20260508072910 40 211 1.0 2.0 0.00 0.00 0.00 57 1007.0
20260508072406 40 212 0.0 0.0 0.00 0.00 0.00 61 1006.9
20260508071904 40 221 0.0 0.0 0.00 0.00 0.00 62 1006.7
20260508071402 40 227 0.0 0.0 0.00 0.00 0.00 62 1006.9
20260508070859 40 237 1.0 1.0 0.00 0.00 0.00 62 1006.8
20260508070357 40 208 0.0 0.0 0.00 0.00 0.00 61 1006.8
20260508065854 39 208 0.0 1.0 0.00 0.00 0.00 61 1007.0
20260508065353 39 204 0.0 0.0 0.00 0.00 0.00 62 1006.9
20260508064850 38 203 0.0 0.0 0.00 0.00 0.00 64 1007.0
20260508064347 38 210 0.0 0.0 0.00 0.00 0.00 64 1007.3
20260508063845 38 210 0.0 0.0 0.00 0.00 0.00 64 1007.2
20260508063343 37 216 1.0 1.0 0.00 0.00 0.00 65 1007.3
20260508062840 37 203 0.0 0.0 0.00 0.00 0.00 67 1007.6
20260508062337 36 203 0.0 0.0 0.00 0.00 0.00 68 1007.5
20260508061834 36 203 0.0 0.0 0.00 0.00 0.00 68 1007.4
20260508061331 36 203 0.0 0.0 0.00 0.00 0.00 68 1007.6
20260508060827 36 203 0.0 0.0 0.00 0.00 0.00 68 1007.6
20260508060325 35 203 0.0 0.0 0.00 0.00 0.00 69 1007.7
20260508055820 35 203 0.0 0.0 0.00 0.00 0.00 68 1007.4
20260508055318 35 203 0.0 0.0 0.00 0.00 0.00 68 1007.8
20260508054815 36 203 0.0 0.0 0.00 0.00 0.00 67 1007.6
20260508054313 36 203 0.0 0.0 0.00 0.00 0.00 67 1007.8
20260508053809 36 203 0.0 0.0 0.00 0.00 0.00 67 1007.9
20260508053306 36 203 0.0 0.0 0.00 0.00 0.00 66 1007.8
20260508052804 37 203 0.0 0.0 0.00 0.00 0.00 66 1007.9
20260508052301 37 203 0.0 0.0 0.00 0.00 0.00 66 1007.9
20260508051757 37 203 0.0 0.0 0.00 0.00 0.00 65 1008.0
20260508051252 37 203 0.0 0.0 0.00 0.00 0.00 65 1008.0
20260508050749 38 203 0.0 0.0 0.00 0.00 0.00 64 1007.9
20260508050246 38 203 0.0 0.0 0.00 0.00 0.00 64 1008.2
20260508045742 38 203 0.0 0.0 0.00 0.00 0.00 63 1008.1
20260508045240 38 203 0.0 0.0 0.00 0.00 0.00 63 1008.0
20260508044737 38 203 0.0 0.0 0.00 0.00 0.00 62 1008.1
20260508044234 38 203 0.0 0.0 0.00 0.00 0.00 62 1008.0
20260508043730 38 203 0.0 0.0 0.00 0.00 0.00 62 1008.3
20260508043227 38 203 0.0 0.0 0.00 0.00 0.00 61 1008.4
20260508042724 38 203 0.0 0.0 0.00 0.00 0.00 61 1008.4
20260508042221 38 203 0.0 0.0 0.00 0.00 0.00 61 1008.4
20260508041718 38 203 0.0 0.0 0.00 0.00 0.00 59 1008.2
20260508041215 39 203 0.0 0.0 0.00 0.00 0.00 60 1008.5
20260508040711 39 203 0.0 0.0 0.00 0.00 0.00 60 1008.4
20260508040208 39 220 0.0 0.0 0.00 0.00 0.00 59 1008.4
20260508035706 39 220 0.0 0.0 0.00 0.00 0.00 59 1008.4
20260508035203 40 220 0.0 0.0 0.00 0.00 0.00 58 1008.4
20260508034659 40 220 0.0 0.0 0.00 0.00 0.00 57 1008.7
20260508034156 41 220 0.0 0.0 0.00 0.00 0.00 57 1008.8
20260508033653 41 220 0.0 1.0 0.00 0.00 0.00 57 1008.5
20260508033152 41 220 0.0 0.0 0.00 0.00 0.00 56 1008.6
20260508032649 41 220 0.0 1.0 0.00 0.00 0.00 56 1008.8
20260508032146 41 220 0.0 0.0 0.00 0.00 0.00 55 1008.7
20260508031643 41 220 0.0 0.0 0.00 0.00 0.00 54 1008.6
20260508031139 41 220 0.0 0.0 0.00 0.00 0.00 55 1008.7
20260508030635 42 220 0.0 0.0 0.00 0.00 0.00 53 1008.8
20260508030133 42 220 0.0 0.0 0.00 0.00 0.00 53 1008.9
20260508025629 42 220 0.0 0.0 0.00 0.00 0.00 52 1008.7
20260508025127 42 221 0.0 0.0 0.00 0.00 0.00 52 1008.7
20260508024622 42 221 0.0 0.0 0.00 0.00 0.00 50 1008.9
20260508024120 43 221 0.0 0.0 0.00 0.00 0.00 50 1008.8
20260508023616 43 221 0.0 0.0 0.00 0.00 0.00 50 1008.6
20260508023114 43 221 0.0 0.0 0.00 0.00 0.00 49 1008.8
20260508022609 44 221 0.0 0.0 0.00 0.00 0.00 48 1009.0
20260508022107 44 221 0.0 0.0 0.00 0.00 0.00 47 1008.7
20260508021602 45 221 0.0 0.0 0.00 0.00 0.00 46 1008.9
20260508021058 46 221 0.0 0.0 0.00 0.00 0.00 45 1008.5
20260508020556 46 218 0.0 0.0 0.00 0.00 0.00 44 1008.7
20260508020054 47 222 0.0 1.0 0.00 0.00 0.00 43 1008.8
20260508015551 48 23 1.0 2.0 0.00 0.00 0.00 42 1008.6
20260508015048 48 222 0.0 0.0 0.00 0.00 0.00 42 1008.8
20260508014544 48 253 1.0 1.0 0.00 0.00 0.00 41 1009.0
20260508014040 49 224 0.0 1.0 0.00 0.00 0.00 41 1008.7
20260508013536 49 327 2.0 3.0 0.00 0.00 0.00 40 1008.8
20260508013034 49 261 1.0 5.0 0.00 0.00 0.00 40 1008.8
20260508012531 50 177 1.0 2.0 0.00 0.00 0.00 40 1008.8
20260508012028 50 301 2.0 3.0 0.00 0.00 0.00 39 1008.8
20260508011527 50 309 2.0 6.0 0.00 0.00 0.00 39 1008.7
20260508011023 50 285 3.0 5.0 0.00 0.00 0.00 39 1008.8
20260508010520 51 309 1.0 5.0 0.00 0.00 0.00 38 1008.9
20260508010018 51 261 2.0 8.0 0.00 0.00 0.00 38 1008.9
20260508005514 51 282 3.0 3.0 0.00 0.00 0.00 37 1008.8
20260508005011 52 246 2.0 7.0 0.00 0.00 0.00 36 1008.9
20260508004507 53 327 1.0 3.0 0.00 0.00 0.00 35 1008.7
20260508004004 53 322 4.0 8.0 0.00 0.00 0.00 35 1009.0
20260508003500 53 74 1.0 5.0 0.00 0.00 0.00 35 1008.9
20260508002958 53 260 4.0 5.0 0.00 0.00 0.00 35 1008.8
20260508002454 53 276 2.0 5.0 0.00 0.00 0.00 35 1008.7
20260508001950 54 199 2.0 3.0 0.00 0.00 0.00 34 1008.8
20260508001446 54 311 3.0 9.0 0.00 0.00 0.00 34 1008.9
20260508000943 54 297 3.0 3.0 0.00 0.00 0.00 34 1008.8
20260508000439 54 298 2.0 6.0 0.00 0.00 0.00 34 1008.7
20260507235936 54 314 2.0 6.0 0.00 0.00 0.00 34 1008.8
20260507235433 54 249 2.0 6.0 0.00 0.00 0.00 33 1009.0
20260507234931 54 344 3.0 10.0 0.00 0.00 0.00 34 1008.8
20260507234427 54 352 3.0 9.0 0.00 0.00 0.00 33 1009.0
20260507233923 55 328 3.0 5.0 0.00 0.00 0.00 32 1009.0
20260507233420 55 308 3.0 7.0 0.00 0.00 0.00 33 1009.1
20260507232919 55 304 4.0 6.0 0.00 0.00 0.00 33 1009.1
20260507232415 55 288 2.0 7.0 0.00 0.00 0.00 32 1009.0
20260507231912 54 247 2.0 6.0 0.00 0.00 0.00 34 1009.0
20260507231409 55 24 4.0 8.0 0.00 0.00 0.00 34 1009.1
20260507230905 55 41 3.0 7.0 0.00 0.00 0.00 34 1009.2
20260507230403 55 5 5.0 8.0 0.00 0.00 0.00 34 1009.2
20260507225902 55 332 4.0 10.0 0.00 0.00 0.00 34 1009.2
20260507225359 55 237 2.0 6.0 0.00 0.00 0.00 34 1009.2
20260507224855 55 273 2.0 6.0 0.00 0.00 0.00 33 1009.0
20260507224351 55 334 3.0 10.0 0.00 0.00 0.00 34 1009.0
20260507223848 55 263 4.0 5.0 0.00 0.00 0.00 33 1009.1
20260507223344 55 311 3.0 5.0 0.00 0.00 0.00 33 1009.3
20260507222841 55 340 4.0 8.0 0.00 0.00 0.00 33 1009.2
20260507222337 55 211 1.0 8.0 0.00 0.00 0.00 35 1009.2
20260507221835 54 251 5.0 7.0 0.00 0.00 0.00 34 1009.2
20260507221331 54 249 5.0 9.0 0.00 0.00 0.00 34 1009.4
20260507220827 55 262 3.0 6.0 0.00 0.00 0.00 33 1009.5
20260507220326 55 314 4.0 7.0 0.00 0.00 0.00 33 1009.7
20260507215822 55 216 4.0 8.0 0.00 0.00 0.00 32 1009.5
20260507215319 54 77 3.0 7.0 0.00 0.00 0.00 33 1009.5
20260507214816 54 280 4.0 9.0 0.00 0.00 0.00 32 1009.7
20260507214314 54 217 1.0 6.0 0.00 0.00 0.00 33 1009.6
20260507213808 54 284 5.0 7.0 0.00 0.00 0.00 33 1009.7
20260507213306 54 28 3.0 8.0 0.00 0.00 0.00 32 1009.8
20260507212802 55 296 5.0 9.0 0.00 0.00 0.00 31 1009.8
20260507212258 55 213 2.0 9.0 0.00 0.00 0.00 30 1009.8
20260507211755 54 267 5.0 6.0 0.00 0.00 0.00 30 1009.9
20260507211251 54 322 3.0 6.0 0.00 0.00 0.00 28 1009.9
20260507210748 54 327 4.0 7.0 0.00 0.00 0.00 28 1010.0
20260507210245 53 310 2.0 7.0 0.00 0.00 0.00 28 1010.0
20260507205742 53 264 2.0 13.0 0.00 0.00 0.00 26 1010.0
20260507205239 54 303 3.0 7.0 0.00 0.00 0.00 28 1010.2
20260507204735 54 230 5.0 7.0 0.00 0.00 0.00 29 1010.2
20260507204233 53 117 3.0 9.0 0.00 0.00 0.00 30 1010.1
20260507203730 54 230 3.0 5.0 0.00 0.00 0.00 29 1010.1
20260507203227 53 332 2.0 7.0 0.00 0.00 0.00 32 1010.0
20260507202724 54 321 3.0 9.0 0.00 0.00 0.00 33 1010.1
20260507202220 53 309 6.0 10.0 0.00 0.00 0.00 32 1010.3
20260507201714 54 265 3.0 6.0 0.00 0.00 0.00 32 1010.4
20260507201212 54 353 2.0 5.0 0.00 0.00 0.00 34 1010.4
20260507200708 52 144 4.0 7.0 0.00 0.00 0.00 32 1010.2
20260507200204 52 215 1.0 6.0 0.00 0.00 0.00 33 1010.4
20260507195701 53 300 2.0 8.0 0.00 0.00 0.00 33 1010.4
20260507195158 53 354 4.0 8.0 0.00 0.00 0.00 35 1010.4
20260507194655 52 281 1.0 2.0 0.00 0.00 0.00 34 1010.4
20260507194150 51 202 4.0 5.0 0.00 0.00 0.00 35 1010.4
20260507193647 52 251 2.0 6.0 0.00 0.00 0.00 35 1010.7
20260507193145 54 289 2.0 8.0 0.00 0.00 0.00 35 1010.5
20260507192640 53 258 3.0 6.0 0.00 0.00 0.00 34 1010.8
20260507192138 53 249 2.0 3.0 0.00 0.00 0.00 33 1010.4
20260507191633 54 232 1.0 3.0 0.00 0.00 0.00 34 1010.4
20260507191130 51 303 2.0 3.0 0.00 0.00 0.00 34 1010.6
20260507190628 52 297 7.0 11.0 0.00 0.00 0.00 34 1010.8
20260507190127 52 220 1.0 8.0 0.00 0.00 0.00 35 1010.8
20260507185625 52 225 1.0 5.0 0.00 0.00 0.00 35 1010.6
20260507185120 50 337 3.0 3.0 0.00 0.00 0.00 36 1010.8
20260507184619 51 300 5.0 9.0 0.00 0.00 0.00 36 1010.9
20260507184116 51 300 3.0 6.0 0.00 0.00 0.00 36 1011.0
20260507183612 51 307 4.0 8.0 0.00 0.00 0.00 37 1011.0
20260507183109 50 283 4.0 6.0 0.00 0.00 0.00 39 1011.0
20260507182605 50 144 3.0 8.0 0.00 0.00 0.00 37 1011.3
20260507182102 50 314 5.0 7.0 0.00 0.00 0.00 39 1011.2
20260507181559 50 293 3.0 6.0 0.00 0.00 0.00 37 1011.2
20260507181055 50 187 2.0 3.0 0.00 0.00 0.00 38 1011.2
20260507180551 50 277 2.0 2.0 0.00 0.00 0.00 38 1011.4
20260507180048 50 206 1.0 7.0 0.00 0.00 0.00 39 1011.6
20260507175544 49 130 1.0 1.0 0.00 0.00 0.00 39 1011.4
20260507175042 48 321 2.0 3.0 0.00 0.00 0.00 40 1012.0
20260507174539 49 77 2.0 6.0 0.00 0.00 0.00 40 1011.8
20260507174037 48 221 1.0 5.0 0.00 0.00 0.00 41 1012.1
20260507173533 48 281 3.0 3.0 0.00 0.00 0.00 40 1011.9
20260507173031 47 192 1.0 2.0 0.00 0.00 0.00 41 1012.0
20260507172527 47 214 3.0 6.0 0.00 0.00 0.00 40 1012.1
20260507172024 48 223 1.0 3.0 0.00 0.00 0.00 40 1012.0
20260507171519 47 30 2.0 5.0 0.00 0.00 0.00 40 1012.2
20260507171017 47 11 1.0 2.0 0.00 0.00 0.00 41 1012.0
20260507170513 47 291 1.0 3.0 0.00 0.00 0.00 40 1012.3
20260507170010 47 345 2.0 2.0 0.00 0.00 0.00 42 1012.2
20260507165506 46 213 0.0 2.0 0.00 0.00 0.00 41 1012.1
20260507165003 46 310 2.0 5.0 0.00 0.00 0.00 41 1012.4
20260507164459 46 234 0.0 3.0 0.00 0.00 0.00 41 1012.4
20260507163955 46 225 0.0 2.0 0.00 0.00 0.00 43 1012.5
20260507163453 44 222 0.0 2.0 0.00 0.00 0.00 43 1012.4
20260507162950 45 130 2.0 3.0 0.00 0.00 0.00 43 1012.5
20260507162445 45 196 1.0 5.0 0.00 0.00 0.00 41 1012.5
20260507161943 44 196 0.0 2.0 0.00 0.00 0.00 42 1012.6
20260507161439 44 71 0.0 3.0 0.00 0.00 0.00 43 1012.7
20260507160936 44 89 1.0 2.0 0.00 0.00 0.00 44 1012.7
20260507160432 44 212 1.0 2.0 0.00 0.00 0.00 44 1012.7
20260507155927 43 282 1.0 2.0 0.00 0.00 0.00 45 1012.8
20260507155424 43 223 1.0 2.0 0.00 0.00 0.00 45 1012.9
20260507154921 44 317 1.0 6.0 0.00 0.00 0.00 45 1012.9
20260507154417 42 210 0.0 2.0 0.00 0.00 0.00 47 1013.0
20260507153915 41 0 1.0 2.0 0.00 0.00 0.00 48 1013.0
20260507153411 41 199 0.0 2.0 0.00 0.00 0.00 49 1012.8
20260507152908 41 108 2.0 3.0 0.00 0.00 0.00 49 1012.8
20260507152404 40 199 0.0 1.0 0.00 0.00 0.00 49 1013.1
20260507151900 39 195 2.0 2.0 0.00 0.00 0.00 51 1013.1
20260507151356 40 230 1.0 2.0 0.00 0.00 0.00 50 1013.2
20260507150854 40 241 1.0 2.0 0.00 0.00 0.00 50 1013.1
20260507150350 39 231 1.0 2.0 0.00 0.00 0.00 51 1013.2
20260507145846 39 339 1.0 2.0 0.00 0.00 0.00 51 1013.2
20260507145343 39 192 1.0 2.0 0.00 0.00 0.00 51 1013.2
20260507144840 39 167 1.0 3.0 0.00 0.00 0.00 51 1013.3
20260507144337 40 49 2.0 2.0 0.00 0.00 0.00 52 1013.0
20260507143834 39 168 0.0 1.0 0.00 0.00 0.00 53 1013.4
20260507143331 38 39 1.0 3.0 0.00 0.00 0.00 54 1013.5
20260507142827 38 216 1.0 2.0 0.00 0.00 0.00 53 1013.5
20260507142323 37 211 0.0 1.0 0.00 0.00 0.00 55 1013.5
20260507141820 37 179 1.0 1.0 0.00 0.00 0.00 54 1013.4
20260507141317 37 206 0.0 2.0 0.00 0.00 0.00 56 1013.5
20260507140813 36 224 0.0 1.0 0.00 0.00 0.00 57 1013.3
20260507140310 36 212 0.0 1.0 0.00 0.00 0.00 57 1013.5
20260507135808 36 340 2.0 2.0 0.00 0.00 0.00 57 1013.4
20260507135306 36 206 0.0 1.0 0.00 0.00 0.00 57 1013.4
20260507134802 36 210 0.0 1.0 0.00 0.00 0.00 59 1013.4
20260507134258 35 147 0.0 1.0 0.00 0.00 0.00 60 1013.4
20260507133754 35 217 0.0 1.0 0.00 0.00 0.00 60 1013.1
20260507133250 34 201 0.0 1.0 0.00 0.00 0.00 61 1013.4
20260507132748 34 197 0.0 1.0 0.00 0.00 0.00 62 1013.5
20260507132245 34 132 1.0 1.0 0.00 0.00 0.00 62 1013.4
20260507131742 34 176 0.0 1.0 0.00 0.00 0.00 62 1013.3
20260507131239 33 197 0.0 1.0 0.00 0.00 0.00 63 1013.5
20260507130735 33 235 0.0 1.0 0.00 0.00 0.00 65 1013.3
20260507130233 33 208 0.0 1.0 0.00 0.00 0.00 65 1013.5
20260507125732 33 319 1.0 2.0 0.00 0.00 0.00 65 1013.3
20260507125229 33 197 0.0 2.0 0.00 0.00 0.00 67 1013.6
20260507124725 32 232 0.0 0.0 0.00 0.00 0.00 68 1013.4
20260507124222 31 4 1.0 2.0 0.00 0.00 0.00 70 1013.5
20260507123721 30 183 0.0 0.0 0.00 0.00 0.00 71 1013.4
20260507123218 30 214 0.0 0.0 0.00 0.00 0.00 71 1013.4
20260507122713 30 228 0.0 0.0 0.00 0.00 0.00 71 1013.5